IK5WWP Weather Reports


Display with metric or nautical units.
time (UTC)temp
F
wind
direction
speed
MPH
gust
MPH
rain 1hr
in
rain 24hr
in
rain mn
in
humidity
%
barometer
mb
20260902023327 68 0 0.0 0.0 0.00 0.00 0.00 78 1017.2
20260902022427 68 0 0.0 0.0 0.00 0.00 0.00 78 1017.1
20260902021528 68 0 0.0 0.0 0.00 0.00 0.00 78 1017.0
20260902015727 68 0 0.0 0.0 0.00 0.00 0.00 78 1016.9
20260902014828 68 0 0.0 0.0 0.00 0.00 0.00 78 1017.1
20260902013927 68 0 0.0 0.0 0.00 0.00 0.00 78 1016.9
20260902012127 68 0 0.0 0.0 0.00 0.00 0.00 78 1016.9
20260902011228 68 0 0.0 0.0 0.00 0.00 0.00 78 1017.0
20260902010328 68 0 0.0 0.0 0.00 0.00 0.00 78 1017.0
20260902005428 68 0 0.0 0.0 0.00 0.00 0.00 78 1017.1
20260902004527 68 0 0.0 0.0 0.00 0.00 0.00 78 1017.2
20260902003628 68 0 0.0 0.0 0.00 0.00 0.00 78 1017.2
20260902001828 68 0 0.0 0.0 0.00 0.00 0.00 78 1016.9
20260902000028 68 0 0.0 0.0 0.00 0.00 0.00 78 1017.1
20260901234228 68 1 0.0 2.0 0.00 0.00 0.00 77 1017.2
20260901233328 69 1 1.0 2.0 0.00 0.00 0.00 74 1017.3
20260901232428 69 1 1.0 2.0 0.00 0.00 0.00 71 1017.4
20260901231528 69 1 0.0 2.0 0.00 0.00 0.00 71 1017.3
20260901230628 69 354 1.0 2.0 0.00 0.00 0.00 72 1017.4
20260901225728 68 0 0.0 0.0 0.00 0.00 0.00 73 1017.3
20260901224828 69 0 0.0 0.0 0.00 0.00 0.00 75 1017.3
20260901223928 69 338 0.0 2.0 0.00 0.00 0.00 70 1017.3
20260901222128 70 337 0.0 2.0 0.00 0.00 0.00 72 1017.5
20260901221230 70 337 0.0 2.0 0.00 0.00 0.00 73 1017.7
20260901215426 70 24 1.0 4.0 0.00 0.00 0.00 67 1017.3
20260901214527 70 11 2.0 4.0 0.00 0.00 0.00 68 1017.1
20260901212727 71 12 2.0 4.0 0.00 0.00 0.00 67 1016.9
20260901211826 71 16 1.0 2.0 0.00 0.00 0.00 67 1017.2
20260901210926 71 20 0.0 4.0 0.00 0.00 0.00 68 1017.0
20260901210026 71 11 1.0 2.0 0.00 0.00 0.00 67 1016.8
20260901205126 71 14 0.0 2.0 0.00 0.00 0.00 66 1017.1
20260901202426 72 10 1.0 4.0 0.00 0.00 0.00 67 1017.0
20260901201526 72 10 2.0 4.0 0.00 0.00 0.00 67 1017.0
20260901200626 72 11 2.0 2.0 0.00 0.00 0.00 67 1017.2
20260901193926 74 21 2.0 4.0 0.00 0.00 0.00 64 1016.7
20260901193026 74 21 2.0 4.0 0.00 0.00 0.00 65 1016.5
20260901192127 74 17 2.0 6.0 0.00 0.00 0.00 66 1016.5
20260901185427 74 5 2.0 4.0 0.00 0.00 0.00 67 1016.1
20260901184526 75 12 1.0 2.0 0.00 0.00 0.00 66 1015.9
20260901183627 75 23 1.0 2.0 0.00 0.00 0.00 66 1015.9
20260901182726 75 23 0.0 2.0 0.00 0.00 0.00 66 1015.9
20260901181826 76 23 1.0 2.0 0.00 0.00 0.00 66 1015.9
20260901180927 76 15 1.0 2.0 0.00 0.00 0.00 65 1016.0
20260901180027 77 21 1.0 2.0 0.00 0.00 0.00 64 1015.8
20260901175126 78 345 0.0 2.0 0.00 0.00 0.00 63 1015.8
20260901173327 82 52 0.0 2.0 0.00 0.00 0.00 54 1015.8
20260901172427 83 69 1.0 2.0 0.00 0.00 0.00 52 1015.2
20260901171527 83 42 1.0 2.0 0.00 0.00 0.00 51 1015.6
20260901165727 84 41 1.0 4.0 0.00 0.00 0.00 46 1015.6
20260901163027 85 29 0.0 4.0 0.00 0.00 0.00 45 1015.5
20260901162127 85 68 2.0 4.0 0.00 0.00 0.00 45 1015.5
20260901161227 86 81 0.0 4.0 0.00 0.00 0.00 45 1015.5
20260901160327 86 90 2.0 4.0 0.00 0.00 0.00 47 1015.6
20260901155427 86 55 2.0 4.0 0.00 0.00 0.00 48 1015.6
20260901153627 86 29 1.0 7.0 0.00 0.00 0.00 47 1015.6
20260901152727 86 53 3.0 6.0 0.00 0.00 0.00 48 1015.7
20260901151827 87 35 2.0 6.0 0.00 0.00 0.00 51 1015.5
20260901150927 87 64 2.0 4.0 0.00 0.00 0.00 52 1015.5
20260901150027 88 67 2.0 2.0 0.00 0.00 0.00 54 1015.7
20260901145127 87 59 2.0 4.0 0.00 0.00 0.00 56 1015.6
20260901144227 87 49 2.0 9.0 0.00 0.00 0.00 54 1015.9
20260901143327 87 64 3.0 6.0 0.00 0.00 0.00 56 1015.6
20260901142427 87 53 1.0 4.0 0.00 0.00 0.00 57 1015.7
20260901141527 87 69 2.0 6.0 0.00 0.00 0.00 56 1015.8
20260901140627 88 47 3.0 7.0 0.00 0.00 0.00 56 1015.5
20260901135727 88 54 2.0 6.0 0.00 0.00 0.00 55 1015.7
20260901134827 88 57 2.0 6.0 0.00 0.00 0.00 55 1015.7
20260901133927 89 92 2.0 6.0 0.00 0.00 0.00 53 1015.7
20260901133027 90 75 4.0 6.0 0.00 0.00 0.00 50 1015.8
20260901131227 91 69 0.0 4.0 0.00 0.00 0.00 46 1015.8
20260901130327 91 61 3.0 4.0 0.00 0.00 0.00 45 1015.7
20260901125427 89 69 2.0 6.0 0.00 0.00 0.00 47 1016.1
20260901124527 91 78 2.0 6.0 0.00 0.00 0.00 46 1015.7
20260901123627 90 47 2.0 4.0 0.00 0.00 0.00 47 1015.9
20260901122727 90 44 1.0 4.0 0.00 0.00 0.00 48 1016.1
20260901121827 91 84 1.0 4.0 0.00 0.00 0.00 48 1016.0
20260901120927 90 91 1.0 4.0 0.00 0.00 0.00 50 1016.0
20260901120027 89 51 1.0 4.0 0.00 0.00 0.00 52 1016.1
20260901115127 90 79 2.0 4.0 0.00 0.00 0.00 51 1016.3
20260901114227 90 83 1.0 4.0 0.00 0.00 0.00 54 1016.0
20260901113327 88 42 1.0 4.0 0.00 0.00 0.00 56 1016.4
20260901112427 87 57 1.0 4.0 0.00 0.00 0.00 58 1016.1
20260901111527 88 43 2.0 4.0 0.00 0.00 0.00 57 1016.1
20260901110627 87 91 1.0 4.0 0.00 0.00 0.00 58 1016.1
20260901105727 90 71 1.0 6.0 0.00 0.00 0.00 55 1016.5
20260901104827 89 90 2.0 6.0 0.00 0.00 0.00 56 1016.4
20260901103927 88 109 1.0 4.0 0.00 0.00 0.00 58 1016.1
20260901103027 87 96 2.0 4.0 0.00 0.00 0.00 58 1016.3
20260901102127 87 73 1.0 4.0 0.00 0.00 0.00 56 1016.5
20260901101228 87 65 1.0 4.0 0.00 0.00 0.00 59 1016.3
20260901100327 86 104 3.0 7.0 0.00 0.00 0.00 62 1016.4
20260901095427 86 98 1.0 6.0 0.00 0.00 0.00 63 1016.5
20260901094527 86 101 2.0 4.0 0.00 0.00 0.00 63 1016.5
20260901093627 85 94 3.0 4.0 0.00 0.00 0.00 66 1016.7
20260901092727 85 85 2.0 4.0 0.00 0.00 0.00 67 1016.5
20260901091827 85 73 2.0 4.0 0.00 0.00 0.00 67 1016.5
20260901090927 83 86 2.0 4.0 0.00 0.00 0.00 68 1016.6
20260901090027 83 83 2.0 4.0 0.00 0.00 0.00 69 1016.7
20260901085127 83 73 1.0 4.0 0.00 0.00 0.00 69 1016.7
20260901084227 81 88 2.0 4.0 0.00 0.00 0.00 71 1016.6
20260901083327 82 72 1.0 2.0 0.00 0.00 0.00 70 1016.4
20260901082427 80 81 0.0 4.0 0.00 0.00 0.00 72 1016.6
20260901081527 79 68 2.0 4.0 0.00 0.00 0.00 73 1016.4
20260901080627 78 68 2.0 4.0 0.00 0.00 0.00 75 1016.6
20260901074828 78 66 1.0 4.0 0.00 0.00 0.00 77 1016.4
20260901073927 77 61 0.0 4.0 0.00 0.00 0.00 77 1016.3
20260901073028 77 45 0.0 2.0 0.00 0.00 0.00 78 1016.1
20260901072128 76 45 0.0 4.0 0.00 0.00 0.00 78 1015.9
20260901071228 75 0 0.0 0.0 0.00 0.00 0.00 79 1016.2
20260901070329 74 23 0.0 2.0 0.00 0.00 0.00 80 1016.1
20260901065427 74 22 0.0 2.0 0.00 0.00 0.00 81 1016.0
20260901064527 73 23 0.0 2.0 0.00 0.00 0.00 81 1016.3
20260901063628 73 23 0.0 2.0 0.00 0.00 0.00 82 1016.2
20260901061828 72 0 0.0 0.0 0.00 0.00 0.00 83 1016.1
20260901060927 71 23 0.0 2.0 0.00 0.00 0.00 83 1016.1
20260901060027 71 22 0.0 2.0 0.00 0.00 0.00 83 1016.3
20260901055127 71 22 0.0 2.0 0.00 0.00 0.00 83 1015.9
20260901054227 71 23 0.0 2.0 0.00 0.00 0.00 84 1016.1
20260901053328 70 23 0.0 2.0 0.00 0.00 0.00 84 1016.2
20260901051528 70 22 0.0 2.0 0.00 0.00 0.00 83 1015.9
20260901050628 70 22 0.0 2.0 0.00 0.00 0.00 83 1015.9
20260901045728 70 22 0.0 2.0 0.00 0.00 0.00 83 1016.0
20260901043928 70 23 1.0 2.0 0.00 0.00 0.00 84 1016.0
20260901043028 70 23 0.0 2.0 0.00 0.00 0.00 84 1015.6
20260901041228 70 23 0.0 2.0 0.00 0.00 0.00 83 1015.9
20260901040328 70 21 0.0 2.0 0.00 0.00 0.00 83 1015.7
20260901035428 70 28 0.0 2.0 0.00 0.00 0.00 83 1015.8
20260901034528 70 23 0.0 2.0 0.00 0.00 0.00 83 1016.1
20260901033628 70 23 0.0 2.0 0.00 0.00 0.00 82 1015.8
20260901032728 70 22 0.0 2.0 0.00 0.00 0.00 82 1016.0
20260901031828 70 29 0.0 2.0 0.00 0.00 0.00 82 1015.9
20260901030028 69 27 0.0 2.0 0.00 0.00 0.00 83 1016.1